Location: Unnamed
(49.5054°N, 18.9950°E)
Time: 09:30:03
(UTC+02:00)

ISS - Visible Passes

Search period start: 13 October 2024 00:00
Search period end: 23 October 2024 00:00
Orbit: 411 x 423 km, 51.6° (Epoch: 12 October)

Date Brightness Start Highest point End Pass type
(mag) Time Alt. Az. Time Alt. Az. Time Alt. Az.
16 Oct -0.8 06:24:29 10° S 06:26:18 14° SE 06:28:07 10° ESE visible
18 Oct -1.9 06:22:58 10° SSW 06:25:54 29° SE 06:28:51 10° E visible
19 Oct -1.4 05:35:05 10° S 05:37:35 20° SE 05:40:06 10° E visible
20 Oct -1.0 04:48:44 13° SSE 04:49:16 13° SE 04:50:55 10° ESE visible
20 Oct -3.3 06:22:11 10° SW 06:25:28 59° SSE 06:28:44 10° ENE visible
21 Oct -2.7 05:35:26 24° SSW 05:36:57 40° SSE 05:40:06 10° ENE visible
22 Oct -1.8 04:49:03 26° SE 04:49:03 26° SE 04:51:19 10° E visible
22 Oct -3.8 06:21:57 13° WSW 06:24:55 82° NNW 06:28:16 10° ENE visible
